This demonstration page uses our WeatherBlox Daily Observations layout. Learn more.

Left ArrowRight Arrow

44.8408, -93.29828

Hourly Observations for October 8, 2021

Temp ( °F °C ) Dew Point ( °F °C ) Humidity (%) Winds ( mph kmh ) Pressure ( in mb ) Visibility ( mi km ) Precip ( " mm )
12:20 am 00:20 Cloudy 65 18.3 61 16.1 87 87 N N/A 30.00 1016 8 13 N/A
12:53 am 00:53 Cloudy 65 18.3 61 16.1 87 87 SE 5 7 30.00 1016 8 13 N/A
1:08 am 01:08 Cloudy 65 18.3 61 16.1 87 87 SSE 3 6 29.99 1016 7 11 N/A
1:53 am 01:53 Cloudy 65 18.3 61 16.1 87 87 SE 5 7 29.99 1016 7 11 N/A
2:19 am 02:19 Cloudy 65 18.3 61 16.1 87 87 SSE 6 9 29.98 1015 7 11 N/A
2:49 am 02:49 Cloudy 64 18 61 16 88 88 SSE 5 7 29.98 1015 8 13 N/A
2:53 am 02:53 Cloudy 64 17.8 61 16.1 90 90 SSE 5 7 29.99 1016 8 13 N/A
3:09 am 03:09 Cloudy 64 17.8 61 16.1 90 90 SSE 3 6 29.99 1015 7 11 N/A
3:53 am 03:53 Cloudy 65 18.3 61 16.1 87 87 S 3 6 29.98 1015 7 11 N/A
4:53 am 04:53 Cloudy 64 17.8 61 16.1 90 90 SE 3 6 29.98 1015 7 11 0.00 0.00
5:53 am 05:53 Cloudy 64 17.8 61 16.1 90 90 E 3 6 29.98 1015 8 13 N/A
6:53 am 06:53 Cloudy 63 17.2 61 16.1 93 93 SSE 3 6 29.99 1016 7 11 N/A
7:01 am 07:01 Cloudy 63 17.2 61 16.1 93 93 N N/A 29.98 1015 7 11 N/A
7:09 am 07:09 Cloudy 63 17.2 61 16.1 93 93 SE 3 6 29.98 1015 7 11 N/A
7:53 am 07:53 Cloudy with Mist and Fog 64 17.8 61 16.1 90 90 SE 3 6 29.99 1016 5 8 N/A
8:08 am 08:08 Cloudy with Mist and Fog 63 17.2 61 16.1 93 93 SE 3 6 29.98 1015 5 8 N/A
8:32 am 08:32 Cloudy with Mist and Fog 64 17.8 62 16.7 93 93 E 7 11 29.98 1015 5 8 N/A
8:53 am 08:53 Cloudy with Mist and Fog 64 17.8 62 16.7 93 93 E 5 7 29.99 1016 5 8 N/A
9:21 am 09:21 Mostly Cloudy with Mist and Fog 65 18.3 62 16.7 90 90 E 5 7 29.98 1015 6 10 N/A
9:53 am 09:53 Cloudy 65 18.3 62 16.7 90 90 ESE 3 6 29.99 1016 7 11 N/A
10:46 am 10:46 Cloudy 66 18.9 61 16.1 84 84 SE 5 7 29.97 1015 8 13 N/A
10:53 am 10:53 Cloudy 66 18.9 61 16.1 84 84 SSE 5 7 29.99 1016 8 13 N/A
11:24 am 11:24 Cloudy 66 18.9 61 16.1 84 84 SSE 3 6 29.97 1015 8 13 N/A
11:53 am 11:53 Cloudy 68 20 61 16.1 78 78 SE 5 7 29.98 1015 10 16 N/A
12:53 pm 12:53 Cloudy 69 20.6 60 15.6 73 73 S 6 9 29.97 1015 10 16 N/A
1:53 pm 13:53 Cloudy 70 21.1 61 16.1 73 73 SE 5 7 29.95 1014 10 16 N/A
2:53 pm 14:53 Mostly Cloudy 71 21.7 60 15.6 68 68 E 6 9 29.93 1013 10 16 N/A
3:53 pm 15:53 Mostly Cloudy 72 22.2 60 15.6 66 66 SE 5 7 29.91 1013 10 16 N/A
4:53 pm 16:53 Mostly Cloudy 71 21.7 61 16.1 71 71 SE 8 13 29.91 1013 10 16 N/A
5:53 pm 17:53 Mostly Cloudy 71 21.7 61 16.1 71 71 ESE 10 17 29.91 1013 10 16 N/A
6:53 pm 18:53 Partly Cloudy 69 20.6 61 16.1 76 76 SE 7 11 29.91 1013 10 16 N/A
7:53 pm 19:53 Mostly Clear 67 19.4 60 15.6 79 79 ESE 10 17 29.92 1013 10 16 N/A
8:53 pm 20:53 Mostly Clear 66 18.9 61 16.1 84 84 SE 8 13 29.91 1013 10 16 N/A
9:53 pm 21:53 Mostly Clear 65 18.3 61 16.1 87 87 SE 7 11 29.91 1013 10 16 N/A
10:53 pm 22:53 Mostly Clear 64 17.8 61 16.1 90 90 SSE 8 13 29.91 1013 10 16 N/A
11:53 pm 23:53 Cloudy 65 18.3 61 16.1 87 87 SSE 8 13 29.91 1013 10 16 N/A

Powered by AerisWeather